Weather History for Havre, MT

Change the Weather History Date:

Tuesday, November 20, 2012

  Actual Average Record
Temperature  
Mean Temperature 48 °F 28 °F  
Max Temperature 60 °F 39 °F 65 °F (2002)
Min Temperature 36 °F 17 °F -33 °F (1896)
Degree Days  
Heating Degree Days 17 37  
Month to date heating degree days 650 650  
Since 1 July heating degree days 1577 1649  
Cooling Degree Days 0 0  
Month to date cooling degree days 0 0  
Year to date cooling degree days 507 387  
Moisture  
Dew Point 34 °F    
Average Humidity 64    
Maximum Humidity 92    
Minimum Humidity 36    
Precipitation  
Precipitation T in 0.01 in 0.33 in (1946)
Month to date precipitation 0.59 0.30  
Year to date precipitation 12.08 10.67  
Snow  
Snow 0.00 in 0.20 in 5.80 in (1946)
Month to date snowfall 11.5 3.2  
Since 1 July snowfall 13.0 5.5  
Since 1 September snowfall 13.0 5.5  
Snow Depth T in    
Sea Level Pressure  
Sea Level Pressure 29.75 in    
Wind  
Wind Speed 13 mph (SW)    
Max Wind Speed 24 mph    
Max Gust Speed 31 mph    
Visibility 10 miles    
Events      
T = Trace of Precipitation, MM = Missing Value Source: NWS Daily Summary

Daily Weather History Graph

Daily Weather History Graph

Search for Another Location

Airport:

Trip Planner

Search our weather history database for the weather conditions in past years. The results will help you decide how hot, cold, wet, or windy it might be!

Date:

Astronomy

Nov. 20, 2012 Rise Set
Actual Time 7:35 AM MST 4:33 PM MST
Civil Twilight 7:00 AM MST 5:08 PM MST
Nautical Twilight 6:21 AM MST 5:47 PM MST
Astronomical Twilight 5:44 AM MST 6:24 PM MST
Moon 12:53 PM MST (11/20) No Moon Set
Length of Visible Light 10h 08m
Length of Day
8h 58m
First Quarter, 52% of the Moon is Illuminated
Nov 20
First Quarter
Nov 28
Full
Dec 6
Last Quarter
Dec 13
New
Dec 19
First Quarter

Hourly Weather History & Observations

Time (MST) Temp. Windchill Dew Point Humidity Pressure Visibility Wind Dir Wind Speed Gust Speed Precip Events Conditions
12:53 AM 53.1 °F - 30.9 °F 43% 29.72 in 10.0 mi SW 18.4 mph 23.0 mph N/A   Clear
1:53 AM 53.1 °F - 30.9 °F 43% 29.71 in 10.0 mi SSW 20.7 mph 28.8 mph N/A   Clear
2:53 AM 51.1 °F - 32.0 °F 48% 29.72 in 10.0 mi SW 15.0 mph - N/A   Clear
3:53 AM 53.1 °F - 32.0 °F 45% 29.71 in 10.0 mi SW 19.6 mph - N/A   Clear
4:53 AM 51.8 °F - 33.8 °F 50% 29.71 in 10.0 mi SW 20.7 mph - N/A   Clear
5:53 AM 52.0 °F - 33.1 °F 49% 29.74 in 10.0 mi SW 23.0 mph 28.8 mph N/A   Clear
6:53 AM 51.1 °F - 33.1 °F 50% 29.76 in 10.0 mi SW 18.4 mph - N/A   Clear
7:53 AM 54.0 °F - 33.1 °F 45% 29.74 in 10.0 mi SW 20.7 mph - N/A   Clear
8:53 AM 54.0 °F - 34.0 °F 47% 29.75 in 10.0 mi SW 18.4 mph - N/A   Clear
9:53 AM 55.0 °F - 35.1 °F 47% 29.76 in 10.0 mi WSW 13.8 mph - N/A   Clear
10:53 AM 60.1 °F - 34.0 °F 38% 29.77 in - SW 19.6 mph 26.5 mph N/A   Clear
11:53 AM - - - N/A% 29.76 in 10.0 mi WSW 16.1 mph 24.2 mph N/A   Clear
12:53 PM 57.9 °F - 36.0 °F 44% 29.73 in 10.0 mi WSW 10.4 mph - N/A   Scattered Clouds
1:53 PM 57.9 °F - 37.0 °F 46% 29.72 in 10.0 mi SW 6.9 mph - N/A   Clear
2:53 PM 54.0 °F - 39.0 °F 57% 29.73 in 10.0 mi North 6.9 mph - N/A   Partly Cloudy
3:53 PM 48.0 °F - 39.0 °F 71% 29.75 in 10.0 mi East 9.2 mph - N/A   Clear
4:53 PM 46.0 °F 41.9 °F 37.0 °F 71% 29.76 in 10.0 mi ENE 8.1 mph - N/A   Clear
5:53 PM 45.0 °F 40.6 °F 37.0 °F 74% 29.76 in 10.0 mi ENE 8.1 mph - N/A   Overcast
6:53 PM 45.0 °F 43.5 °F 36.0 °F 71% 29.78 in 10.0 mi Variable 3.5 mph - N/A   Overcast
7:53 PM 43.0 °F 38.2 °F 36.0 °F 76% 29.76 in 10.0 mi East 8.1 mph - 0.00 in   Scattered Clouds
8:53 PM 42.1 °F 38.4 °F 35.1 °F 76% 29.75 in 10.0 mi ENE 5.8 mph - N/A   Clear
9:53 PM 37.0 °F - 33.1 °F 86% 29.76 in 10.0 mi Calm Calm - N/A   Clear
10:53 PM 36.0 °F 33.3 °F 33.1 °F 89% 29.76 in 10.0 mi East 3.5 mph - N/A   Clear
11:53 PM 37.9 °F 32.7 °F 34.0 °F 86% 29.77 in 10.0 mi WNW 6.9 mph - N/A   Overcast